Regional Weather Roundup
Issued by NWS

Home | Current Version | Previous Version | Graphics & Text | Print | Product List | Glossary On
Versions: 1 2 3 4 5 6 7 8 9 10 11 12 13 14 15 16 17 18 19 20 21 22 23 24 25 26 27 28 29 30 31 32 33 34 35 36 37 38 39 40 41 42 43 44 45 46 47 48 49 50
000
ASUS43 KDTX 312210
RWRMI
MICHIGAN HOURLY REGIONAL WEATHER ROUNDUP
NATIONAL WEATHER SERVICE DETROIT/PONTIAC MI
500 PM EST SAT JAN 31 2015

NOTE: "FAIR" INDICATES FEW OR NO CLOUDS BELOW 12,000 FEET WITH NO
SIGNIFICANT WEATHER AND/OR OBSTRUCTION TO VISIBILITY.

MIZ047>049-052>055-059>063-066>070-074>076-081>083-312300-
SOUTHEAST LOWER MICHIGAN

CITY           SKY/WX    TMP DP  RH WIND       PRES   REMARKS
ADRIAN         MOCLDY    34  22  61 SW9       30.19R
ALMA           CLOUDY    32  26  80 W8        30.15S
ANN ARBOR      CLOUDY    34  22  61 SW7       30.16F
BAD AXE        CLOUDY    28  24  83 W5        30.15S
DETROIT CITY   CLOUDY    34  19  54 SW10      30.18S
DETROIT        CLOUDY    33  23  66 S9        30.18F
FLINT          CLOUDY    33  21  61 W5        30.16S
GROSSE ILE     CLOUDY    34  23  64 SW8       30.18S
HILLSDALE      MOCLDY    35  21  57 SW5       30.15S
HOWELL         CLOUDY    32  21  63 W8        30.15R

CITY           SKY/WX    TMP DP  RH WIND       PRES   REMARKS
JACKSON        MOCLDY    33  21  61 SW7       30.16R
LAMBERTVILLE   MOCLDY    34  23  64 SW6       30.20S
LANSING        CLOUDY    33  21  61 SW9       30.15F
LAPEER         NOT AVBL
MASON          CLOUDY    33  21  61 SW5       30.15S
MONROE         MOCLDY    34  25  69 SW6       30.18S
MT. CLEMENS    CLOUDY    33  20  59 SW8       30.15S
PONTIAC        CLOUDY    32  18  56 SW6       30.13F
PORT HOPE        N/A     28  21  75 W5        30.14R
PORT HURON     CLOUDY    28  21  74 S5        30.17S
TRI CITIES     CLOUDY    33  24  69 SW5       30.15S
YPSILANTI      CLOUDY    36  24  62 S10       30.17F
$$
MIZ043>046-050>051-056>058-064>065-071>073-077>080-312300-
SOUTHWEST LOWER MICHIGAN

CITY           SKY/WX    TMP DP  RH WIND       PRES   REMARKS
BATTLE CREEK   MOCLDY    35  22  58 SW9       30.16S
BENTON HARBOR  CLOUDY    34  26  72 W7        30.18R
BIG RAPIDS     CLOUDY    31  24  74 NW3       30.14R
COLDWATER      MOCLDY    33  24  69 SW6       30.16S
HOLLAND        CLOUDY    33  24  69 W6        30.18R
GRAND RAPIDS   CLOUDY    32  25  75 SW12      30.16S
KALAMAZOO      MOCLDY    35  22  58 SW9       30.16S
MARSHALL       MOCLDY    33  22  62 SW5       30.15S
MUSKEGON       CLOUDY    32  23  69 W6        30.18R
$$
MIZ016>042-312300-
NORTHERN LOWER MICHIGAN

CITY           SKY/WX    TMP DP  RH WIND       PRES   REMARKS
ALPENA         CLOUDY    26  17  68 W7        30.13R
BEAVER ISLAND  LGT SNOW  23  18  82 NW5       30.19R
BELLAIRE       LGT SNOW  27  20  76 NW3       30.18R
CADILLAC       CLOUDY    26  21  82 NW7       30.12R
CHARLEVOIX     CLOUDY    25  19  79 N14G20    30.20R
FRANKFORT      CLOUDY    28  21  76 N6        30.18R
GAYLORD        LGT SNOW  23  19  85 W6        30.11S FOG
GRAYLING       CLOUDY    25  19  77 W9        30.13S
HARBOR SPRINGS FLURRIES  25  17  72 NW12      30.16R
HOUGHTON LAKE  CLOUDY    25  20  81 NW7       30.13R
MANISTEE       CLOUDY    28  19  69 NE6       30.19R
OSCODA         CLOUDY    27  21  76 W6        30.14R
PELLSTON       CLOUDY    24  16  71 NW14      30.17R
TRAVERSE CITY  CLOUDY    28  19  69 N8        30.17R
$$
MIZ007>008-015-312300-
EASTERN UPPER MICHIGAN

CITY           SKY/WX    TMP DP  RH WIND       PRES   REMARKS
KINROSS        CLOUDY    19  16  86 NW18G25   30.12R
MACKINAC ISLAN CLOUDY    24  16  71 NW15G23   30.14R
NEWBERRY       CLOUDY    18  13  79 NW9G16    30.17R
S. S. MARIE    MOCLDY    17   8  67 NW14      30.13R
$$
MIZ004>006-011>014-085-312300-
CENTRAL UPPER MICHIGAN

CITY           SKY/WX    TMP DP  RH WIND       PRES   REMARKS
MANISTIQUE     FLURRIES  20  12  70 NW14G20   30.20R
ESCANABA       CLOUDY    23  10  58 N10G16    30.22R
MENOMINEE      CLOUDY    28  18  64 N5        30.19R
SAWYER-GWINN   LGT SNOW  16  10  79 N16       30.21R
$$
MIZ001>003-009>011-084-312300-
WESTERN UPPER MICHIGAN

CITY           SKY/WX    TMP DP  RH WIND       PRES   REMARKS
IRON MOUNTAIN  MOCLDY    22  11  62 N13       30.17R
HOUGHTON       LGT SNOW  12   5  73 N12       30.26R WCI  -2
COPPER HARBOR    N/A     13   6  74 NE18G29   30.30R WCI  -4
IRONWOOD       CLOUDY    16  10  79 N6        30.21F
$$

ABBREVIATIONS USED IN REMARKS
   TC - TEMPERATURE IN CELSIUS
  WCI - WIND CHILL INDEX
   HX - HEAT INDEX
  VSB - VISIBILITY



USA.gov is the U.S. government's official web portal to all federal, state and local government web resources and services.